WESTFORD NEEDLES, 2378

Orbit data source: Space-Track

WESTFORD NEEDLES, 2378 is space debris in LEO originally from a launch on Thu, 09 May 1963 UTC launched from the Air Force Western Test Range (AFWTR). Debris objects in space refer to the collection of defunct objects orbiting the Earth. Examples of debris include non-operational satellites, rocket bodies, and fragments generated from explosions, collisions, or faulty payload assembly.

Loading next visibility...
Identifier
2378, 1963-014Y
Orbit
LEO
Country
Flag of USUS
Related business
Manufacturer
Unknown
Mission
Spacecraft
Bus & Motor
Unknown
Mass
Unknown
Launch date (UTC)
1963-05-09 (62 years ago)
Launch vehicle
Unknown
Launch site
Air Force Western Test Range (AFWTR)
Object type
Payload
Rocket body
Debris
Shape & HBR
Unknown
Radar Cross Section
Medium (>0.1 m² and <1 m²)

Expand to show TLE details & history
Last TLE update: 1 month ago

TLE from 1 month ago
0 WESTFORD NEEDLES
1 02378U 63014Y   25233.84441077  .00000075  00000-0  32949-1 0  9994
2 02378  87.3726 186.5366 0115445 109.1617 252.1775  8.66597065969550
Epoch: 2025-08-21T20:15Z
TLE epoch observation values (Epoch: 2025-08-21T20:15:57.09Z)
Latitude
0.00001°
Longitude
-87.85332°
Altitude
3,672.702 km
Speed
6.287 km/s
True Right ascension
12h 26m 08s
True Declination
0° 00' 00"
Sunlit
Object was in daylight at epoch
Visualization orbit readout
Latitude
Unknown
Longitude
Unknown
Altitude
Unknown
Speed
Unknown
Apparent Right ascension
Unknown
Apparent Declination
Unknown
Sunlit
N/A
Visualization observer readout
Local Sidereal Time
12:19:29
Azimuth
Unknown
Elevation
Unknown
Doppler factor
Unknown
Orbital elements
Apogee altitude
3,747.309 km
Perigee altitude
3,516.19 km
Semi-major axis
10,009.886 km
Eccentricity
0.01154
Inclination
87.3726°
RAAN
186.5366°
Arg. of periapsis
109.1617°
True anomaly
250.92372°
Mean anomaly
252.1775°
Eccentric anomaly
251.55005°
Mean motion
2.1672 °/min
Orbital period
166.11 mins
BSTAR
0.032949
Loading maneuver chart data...
Computing Atmospheric mass density...

Documentation

Showing up to 5 results
|